Wind_Speed
16 17 18 20 21 22 23 25 28 27 28 30 32 34 35 35 36 38 39 41 41 40 40 40 41 42 43 43 43 43 42 41 41 41 41 42 42 41 41 41 40 39 38 37
15 16 17 19 20 20 21 23 26 27 27 29 31 33 35 35 35 37 38 40 41 41 41 41 40 41 42 43 44 44 44 42 42 42 42 43 44 43 43 43 42 41 41 39
15 15 16 18 19 19 21 23 24 26 26 27 29 32 33 34 34 35 37 38 40 41 41 41 41 42 43 43 44 44 44 44 44 44 44 44 45 45 44 44 43 42 42 41
15 15 16 18 19 19 20 22 24 26 27 26 28 31 31 33 34 35 36 37 39 41 41 41 42 42 43 43 44 44 44 44 44 45 45 46 45 46 45 44 44 44 43 43
14 15 16 17 18 18 20 21 23 25 28 28 26 30 28 30 33 34 36 37 37 40 41 42 42 42 43 44 44 45 45 45 45 46 46 47 47 46 46 46 46 45 45 44
13 14 15 15 17 18 19 20 22 24 27 27 25 28 28 28 30 32 34 36 37 40 41 42 43 43 43 44 44 45 45 46 46 47 47 47 47 47 47 47 47 46 45 45
13 13 14 15 16 17 18 19 20 23 25 26 25 28 29 29 29 31 34 36 37 38 40 41 42 43 43 44 44 44 45 46 46 46 47 47 47 47 47 47 47 47 46 45
12 12 13 14 15 17 17 18 19 21 24 25 25 27 28 29 30 32 34 36 37 37 38 39 40 42 43 43 43 44 44 45 46 46 46 47 47 48 47 47 47 47 47 46
12 13 14 14 15 16 16 18 20 22 24 25 25 26 26 27 30 32 35 35 35 36 37 38 39 40 41 43 43 43 44 45 45 45 45 47 47 48 48 48 47 48 48 48
13 13 14 15 16 16 16 16 18 19 21 24 25 26 27 27 29 31 33 34 34 35 36 37 38 38 40 42 43 43 43 44 45 46 46 47 48 48 49 48 47 46 47 47
14 14 14 15 15 15 16 17 17 18 20 23 25 25 26 28 29 30 31 32 33 35 36 37 38 38 39 40 41 41 42 43 44 45 46 47 47 47 48 48 48 47 47 48
16 15 14 14 15 16 17 18 19 19 20 22 25 25 25 28 29 29 30 30 31 32 34 36 38 38 38 39 40 41 42 43 42 42 43 44 45 47 48 49 49 49 48 47
16 15 15 15 15 16 17 18 19 21 22 23 25 25 26 27 29 29 29 29 29 29 31 34 35 37 38 39 40 40 41 42 42 41 41 44 45 45 46 48 48 48 49 48
16 16 16 16 17 18 18 19 21 23 24 25 26 26 26 28 29 30 29 29 27 27 29 32 34 35 36 37 38 39 41 41 42 42 41 42 44 45 45 45 47 48 47 47
16 17 17 18 18 19 19 20 21 24 25 27 26 27 27 28 29 29 29 29 27 26 27 30 32 34 34 36 36 37 38 40 40 41 41 42 44 44 45 45 47 48 48 48
16 17 17 18 19 20 20 21 23 24 25 26 26 26 26 27 27 27 28 28 28 27 27 29 30 31 32 33 34 36 37 38 38 38 39 41 42 42 43 45 45 46 46 46
19 19 20 20 20 20 20 21 22 23 24 24 25 25 25 25 25 24 25 27 28 28 29 30 30 31 33 34 34 35 37 37 38 38 39 39 39 40 41 44 45 46 46 46
21 22 23 23 23 23 22 22 23 24 24 24 24 25 25 25 24 25 25 26 27 29 29 29 30 31 33 33 33 34 36 36 37 37 38 39 38 38 39 41 43 44 46 47
22 23 24 25 26 25 24 24 24 24 24 24 24 25 25 25 25 25 25 26 27 27 28 28 29 29 30 31 33 33 35 36 36 36 37 37 37 37 38 41 42 43 45 46
23 24 25 25 27 27 26 25 25 25 25 25 26 26 28 28 27 26 26 26 27 27 27 26 26 27 29 31 32 32 33 35 36 36 37 38 38 37 37 39 41 42 44 45
23 24 25 25 27 27 27 27 27 27 26 26 27 28 28 28 27 27 26 27 27 27 27 27 26 27 28 29 31 32 33 34 35 36 37 38 38 39 39 39 39 40 41 42
24 25 26 27 27 27 28 28 28 28 28 28 29 29 28 28 28 27 27 26 27 27 28 28 28 28 29 30 31 32 33 33 34 34 35 36 37 37 37 37 38 38 39 39
25 26 27 27 28 28 28 28 28 29 29 29 29 30 30 30 29 28 27 26 27 27 28 29 29 29 29 30 31 32 32 32 32 32 33 34 35 35 36 36 37 37 38 37
26 27 27 28 28 28 28 29 29 29 30 30 30 30 30 30 29 28 28 27 27 28 28 28 28 28 29 29 30 30 31 33 33 33 33 33 33 34 34 34 35 36 37 37
26 27 28 28 29 29 29 30 30 30 31 31 31 31 31 30 29 29 29 29 29 29 28 28 28 28 28 28 28 29 30 31 32 33 34 33 34 34 34 34 34 35 36 37
27 29 29 28 28 29 29 30 30 31 31 31 31 31 31 31 31 31 30 29 29 29 28 28 28 28 28 28 28 28 29 31 32 33 33 33 34 34 34 34 35 35 35 36
Wind_Direction
255 251 250 250 249 249 250 249 248 247 245 247 245 245 246 246 246 245 244 245 245 245 245 246 246 246 246 246 245 246 248 248 248 247 246 246 246 247 248 249 251 252 254 257
257 254 255 253 249 251 251 252 249 247 245 248 247 247 246 246 246 246 246 246 247 246 245 246 246 246 246 247 245 246 247 247 248 248 247 246 246 246 248 250 252 253 255 257
263 260 258 252 253 257 255 254 250 248 246 250 252 252 249 247 247 248 248 248 249 249 248 247 246 247 247 247 246 247 248 247 248 249 248 247 247 247 249 250 252 254 256 257
269 263 260 256 260 260 259 256 253 251 248 252 255 256 251 250 249 250 250 250 251 251 250 249 248 248 248 248 247 247 247 248 248 248 248 247 247 248 249 252 253 254 254 256
272 266 262 262 264 262 262 259 255 256 254 254 256 258 256 255 253 252 252 252 253 252 252 251 250 249 248 248 248 248 248 248 248 248 248 248 248 249 250 251 253 253 253 255
279 271 269 268 266 264 265 263 258 258 257 258 259 261 260 261 259 258 256 255 255 254 252 251 251 249 249 249 249 248 248 248 248 248 248 248 249 249 251 251 252 254 254 254
283 278 272 270 269 264 264 264 262 261 260 262 264 265 266 267 265 264 263 260 257 256 254 252 251 250 249 249 249 248 248 248 248 249 249 249 250 249 250 251 252 254 255 255
284 279 276 274 273 271 264 264 264 265 266 268 267 268 270 270 270 268 266 262 260 259 257 254 252 251 251 250 250 249 249 250 250 249 249 249 249 250 250 251 253 253 255 255
288 283 283 277 272 270 266 266 266 269 270 272 272 273 272 272 272 271 267 264 263 261 259 254 252 253 253 252 250 249 249 250 250 250 250 250 249 250 250 250 252 253 253 255
291 288 285 282 276 271 269 267 269 272 273 276 279 279 279 278 277 275 271 266 262 260 258 255 253 253 253 252 250 249 249 251 251 251 250 250 250 251 250 250 252 253 253 254
294 293 289 285 279 272 269 267 272 276 276 280 282 282 284 283 282 282 277 269 265 262 259 257 255 253 253 253 251 249 250 251 252 252 252 251 250 250 250 250 251 253 253 254
294 295 292 290 284 279 275 273 275 279 279 279 282 285 287 287 284 283 280 272 267 264 261 260 257 253 252 252 250 250 251 251 251 252 252 251 251 251 250 250 251 253 253 253
292 293 293 292 287 283 280 276 275 278 280 281 284 286 288 288 287 283 281 275 271 268 262 260 257 254 253 253 251 250 252 251 250 251 251 250 250 250 250 251 251 252 253 254
288 291 293 296 295 292 287 281 278 279 281 283 285 287 286 287 287 285 280 277 274 270 267 262 259 256 255 254 252 251 251 251 250 250 249 251 251 250 251 251 251 252 253 254
289 288 291 294 296 293 290 286 283 283 285 287 289 290 289 288 288 285 281 277 274 271 267 264 261 257 255 254 252 253 253 252 250 250 250 251 251 252 252 253 253 252 252 254
290 290 292 295 294 295 294 291 288 289 290 291 292 294 292 290 288 285 280 278 273 270 267 263 260 256 254 254 253 252 252 251 250 250 251 253 254 255 255 254 253 252 253 254
289 290 291 293 294 294 295 297 296 293 293 293 293 293 292 289 287 285 279 275 271 269 267 265 261 257 256 255 255 254 252 252 253 253 253 255 257 256 255 255 254 254 255 255
291 290 291 291 293 293 295 296 296 295 295 295 294 293 294 292 289 286 282 277 274 271 270 268 265 260 258 257 257 256 254 255 256 255 255 256 256 256 256 255 256 256 256 257
293 294 294 294 294 294 294 296 295 295 295 294 294 293 295 295 293 288 285 281 278 274 271 270 267 262 259 259 259 258 255 256 256 256 256 256 258 258 257 257 258 258 259 260
295 296 297 297 295 295 295 294 293 293 293 293 294 294 294 295 292 290 287 285 281 275 272 270 268 264 261 261 261 258 257 257 256 257 256 256 257 259 259 258 259 260 261 261
296 298 298 297 297 298 297 295 293 293 294 293 293 294 294 295 294 292 289 287 282 277 272 270 270 268 266 263 261 261 259 258 258 259 259 258 257 259 260 260 260 261 262 262
299 300 299 300 299 300 300 298 296 294 293 293 293 293 294 293 293 292 290 288 283 278 274 273 272 271 268 266 264 263 260 259 259 259 260 259 258 258 260 260 260 261 261 262
298 300 301 301 301 301 300 300 297 295 294 294 293 293 292 292 291 289 288 286 284 280 277 276 274 272 269 269 268 266 262 260 261 262 261 260 259 260 261 261 261 260 261 262
298 300 300 301 301 300 300 300 298 296 295 295 296 295 292 290 290 288 286 285 284 281 279 277 275 273 272 271 270 269 267 263 262 262 263 261 260 260 260 260 261 262 262 262
298 300 300 300 300 299 298 297 296 295 295 295 296 295 292 289 288 287 285 284 283 282 280 277 275 272 271 270 268 267 267 266 263 262 261 260 260 261 262 262 263 264 264 264
297 300 300 300 299 298 297 296 295 295 295 295 295 293 290 288 287 286 285 284 283 281 280 277 275 273 271 269 268 268 266 265 264 263 261 259 260 261 262 263 264 265 264 265
Height
5681 5683 5683 5685 5687 5689 5690 5692 5694 5696 5697 5699 5702 5704 5708 5711 5713 5716 5719 5722 5726 5730 5734 5737 5741 5744 5748 5751 5755 5759 5762 5765 5768 5771 5774 5778 5781 5785 5788 5791 5793 5795 5797 5799
5679 5679 5680 5681 5682 5683 5684 5686 5687 5690 5691 5693 5695 5697 5701 5703 5706 5708 5711 5713 5717 5720 5724 5727 5731 5735 5738 5742 5745 5749 5752 5756 5759 5762 5765 5769 5773 5776 5779 5782 5784 5786 5788 5791
5675 5676 5676 5677 5678 5678 5680 5680 5682 5683 5685 5687 5689 5690 5693 5696 5698 5700 5702 5705 5707 5710 5714 5718 5721 5725 5728 5732 5735 5739 5742 5746 5749 5752 5755 5759 5762 5766 5769 5772 5775 5777 5780 5782
5671 5672 5672 5673 5673 5674 5675 5675 5676 5677 5679 5681 5682 5681 5685 5688 5690 5692 5694 5697 5699 5701 5704 5708 5711 5715 5718 5722 5725 5729 5732 5735 5739 5742 5745 5748 5752 5756 5760 5762 5765 5767 5770 5772
5668 5668 5668 5669 5669 5669 5670 5670 5671 5672 5673 5675 5676 5675 5678 5679 5681 5684 5686 5688 5690 5692 5695 5698 5702 5705 5708 5711 5715 5718 5722 5725 5728 5732 5735 5738 5742 5746 5749 5752 5754 5757 5759 5762
5665 5664 5665 5665 5665 5665 5665 5665 5666 5666 5667 5668 5670 5669 5670 5672 5674 5675 5677 5678 5680 5682 5685 5688 5691 5694 5698 5701 5704 5708 5711 5714 5717 5721 5724 5727 5730 5734 5738 5741 5743 5746 5749 5751
5661 5661 5661 5661 5661 5661 5661 5661 5661 5660 5660 5662 5664 5663 5665 5666 5667 5668 5668 5669 5671 5672 5675 5678 5681 5684 5687 5691 5694 5697 5701 5704 5706 5709 5713 5716 5719 5723 5726 5730 5733 5735 5738 5741
5658 5659 5658 5658 5657 5657 5657 5656 5657 5656 5655 5656 5657 5657 5660 5660 5660 5660 5660 5660 5661 5663 5665 5668 5671 5674 5677 5680 5683 5687 5690 5693 5696 5699 5702 5705 5708 5712 5715 5718 5721 5724 5727 5730
5655 5656 5655 5654 5653 5653 5652 5652 5653 5652 5651 5651 5651 5652 5653 5653 5653 5652 5652 5652 5653 5655 5656 5658 5661 5664 5667 5670 5673 5676 5679 5682 5685 5688 5691 5694 5697 5700 5704 5707 5710 5714 5716 5719
5653 5652 5652 5651 5650 5649 5649 5648 5649 5648 5647 5645 5646 5647 5647 5647 5646 5645 5644 5644 5645 5646 5648 5649 5652 5655 5657 5660 5663 5666 5669 5672 5674 5677 5679 5682 5686 5689 5692 5695 5699 5702 5705 5708
5650 5650 5649 5647 5646 5645 5645 5645 5644 5643 5643 5642 5640 5643 5642 5640 5639 5638 5636 5636 5636 5638 5639 5640 5642 5645 5647 5650 5653 5656 5659 5661 5664 5666 5669 5671 5674 5677 5680 5684 5688 5691 5694 5697
5646 5646 5645 5644 5643 5642 5641 5641 5640 5640 5639 5637 5636 5639 5636 5634 5632 5631 5629 5629 5628 5629 5630 5631 5633 5635 5638 5640 5643 5646 5649 5651 5653 5656 5658 5660 5663 5666 5669 5673 5677 5680 5683 5686
5643 5643 5642 5641 5642 5640 5638 5637 5636 5635 5634 5633 5631 5634 5630 5628 5625 5624 5623 5622 5621 5621 5622 5623 5625 5627 5629 5631 5634 5637 5639 5641 5644 5646 5648 5650 5652 5656 5659 5662 5665 5669 5672 5675
5640 5640 5639 5639 5637 5635 5635 5634 5632 5631 5629 5628 5627 5626 5624 5621 5619 5617 5616 5615 5614 5614 5615 5616 5617 5619 5621 5623 5625 5628 5630 5632 5634 5636 5638 5640 5642 5645 5648 5651 5654 5657 5660 5663
5637 5637 5635 5634 5632 5631 5630 5629 5627 5626 5624 5623 5622 5620 5618 5615 5613 5611 5609 5608 5608 5608 5609 5609 5610 5611 5613 5615 5617 5619 5620 5622 5624 5627 5629 5630 5633 5635 5638 5640 5643 5646 5649 5652
5633 5633 5632 5631 5628 5626 5625 5624 5622 5620 5618 5616 5615 5614 5611 5609 5607 5605 5603 5602 5602 5602 5602 5602 5602 5603 5605 5606 5608 5610 5611 5613 5616 5618 5620 5621 5623 5625 5628 5630 5633 5635 5638 5640
5629 5628 5627 5626 5623 5621 5621 5619 5617 5615 5613 5611 5608 5608 5604 5602 5600 5599 5597 5596 5595 5595 5595 5595 5595 5596 5597 5598 5599 5601 5602 5604 5607 5609 5610 5612 5613 5615 5617 5620 5622 5625 5627 5629
5625 5623 5621 5620 5619 5617 5618 5614 5611 5609 5607 5604 5602 5600 5598 5596 5594 5592 5591 5590 5588 5588 5588 5588 5587 5588 5589 5590 5591 5592 5594 5596 5597 5599 5600 5602 5603 5605 5607 5609 5611 5613 5615 5618
5620 5618 5616 5614 5611 5610 5611 5608 5605 5603 5602 5599 5596 5594 5592 5590 5588 5587 5584 5583 5582 5581 5581 5580 5580 5580 5581 5582 5583 5584 5585 5586 5587 5589 5591 5592 5593 5595 5597 5599 5600 5602 5604 5606
5614 5612 5611 5607 5604 5604 5605 5601 5598 5597 5595 5593 5590 5588 5586 5583 5582 5581 5579 5576 5575 5574 5574 5573 5573 5573 5573 5574 5575 5576 5577 5578 5579 5580 5581 5583 5584 5586 5587 5588 5590 5592 5593 5595
5609 5606 5604 5601 5598 5597 5597 5594 5591 5591 5589 5586 5583 5581 5579 5577 5575 5574 5571 5569 5568 5567 5566 5566 5566 5565 5565 5566 5566 5567 5568 5569 5570 5571 5572 5573 5574 5576 5577 5579 5580 5581 5583 5584
5603 5601 5598 5596 5593 5593 5589 5586 5585 5583 5581 5578 5576 5574 5572 5570 5567 5566 5564 5562 5560 5560 5559 5558 5558 5558 5557 5557 5557 5558 5559 5560 5561 5561 5562 5563 5564 5566 5567 5568 5569 5570 5572 5573
5597 5596 5592 5591 5590 5586 5582 5579 5577 5575 5573 5570 5568 5566 5564 5562 5560 5558 5557 5555 5553 5552 5551 5551 5550 5549 5549 5548 5548 5548 5549 5550 5551 5551 5552 5553 5554 5555 5556 5558 5559 5560 5561 5562
5591 5588 5586 5584 5582 5579 5576 5572 5570 5567 5565 5563 5560 5558 5555 5553 5552 5550 5548 5547 5546 5545 5544 5543 5542 5541 5540 5540 5539 5539 5539 5540 5541 5542 5543 5543 5545 5546 5547 5547 5548 5549 5550 5552
5584 5581 5579 5576 5575 5572 5569 5565 5562 5560 5557 5555 5553 5550 5548 5545 5544 5542 5540 5539 5537 5536 5535 5534 5533 5532 5531 5531 5531 5531 5531 5531 5531 5532 5533 5534 5535 5536 5537 5537 5538 5539 5540 5540
5578 5575 5572 5570 5567 5564 5561 5558 5555 5552 5550 5547 5545 5542 5540 5537 5535 5534 5532 5530 5529 5528 5527 5526 5525 5524 5523 5522 5522 5522 5521 5521 5521 5522 5522 5523 5524 5526 5527 5527 5528 5528 5529 5530